GFSFLT2_500_rhum_057.txt.gz
RH
49 46 42 33 21 15 18 17 10 8 9 7 4 3 4 12 24 26 32 35 42 49 54 54 57 57 53
48 37 22 14 15 20 14 10 8 6 4 3 7 26 30 32 28 32 34 44 49 57 64 65 66 61 62
30 17 14 17 19 12 8 5 4 4 12 32 30 20 12 11 15 27 33 36 43 52 59 65 75 70 66
20 19 20 13 7 5 4 4 13 23 20 13 12 13 11 10 10 8 7 8 26 39 46 45 54 67 68
24 16 9 5 5 5 6 15 15 15 15 18 17 16 16 15 14 13 11 8 8 9 17 22 25 36 45
15 7 5 5 5 8 16 14 20 20 18 18 17 16 17 18 16 15 14 13 11 11 12 14 17 18 22
7 6 5 5 11 20 22 21 16 13 11 10 20 25 25 26 22 18 16 15 15 15 16 14 15 16 15
7 5 5 22 25 24 19 15 15 19 16 12 25 34 36 37 26 21 20 24 24 22 21 19 17 16 15
6 7 26 25 22 19 19 25 26 28 30 20 25 28 45 49 49 33 33 36 33 31 25 24 20 17 16
13 31 24 23 27 30 33 39 43 44 50 37 35 40 42 83 100 76 58 51 38 28 25 22 18 18 43
35 24 24 31 37 42 51 62 71 76 73 58 52 51 62 52 98 95 71 54 39 33 24 20 48 77 75
27 27 31 39 51 68 88 100 100 99 86 72 58 53 59 69 64 82 60 49 37 30 48 74 76 68 53
34 42 47 55 78 88 100 100 100 100 88 70 63 58 59 57 47 55 47 44 28 65 72 75 80 62 63
40 45 58 79 94 100 100 97 91 97 100 82 71 62 58 52 47 42 40 38 64 75 93 98 69 68 76
51 71 84 86 73 72 82 85 85 85 90 99 82 66 52 44 39 41 44 82 87 100 97 100 88 75 64
77 76 56 57 82 100 100 95 80 83 72 58 76 63 59 51 28 50 72 100 100 100 77 73 83 76 54
58 61 77 85 95 100 100 99 80 78 65 46 53 40 44 50 39 78 91 100 100 90 68 62 50 56 45

GFSFLT2_500_rhum_060.txt.gz
RH
45 53 51 50 51 47 41 34 27 20 10 7 8 8 7 4 4 7 16 23 27 29 28 29 31 38 46
51 48 47 48 43 38 31 20 13 8 7 8 7 5 5 11 18 15 11 10 9 10 26 33 37 45 50
48 49 46 42 34 18 9 8 7 7 6 5 5 10 14 13 13 13 12 10 10 10 9 8 18 35 43
51 46 39 24 11 9 10 8 7 6 6 11 16 17 19 18 16 14 14 14 14 16 15 13 10 10 28
46 38 24 12 10 10 8 7 5 8 19 21 20 17 14 13 12 11 10 9 10 11 14 16 14 10 9
28 18 11 10 10 8 6 5 10 22 23 20 18 18 19 19 20 18 16 14 17 18 16 16 17 15 13
17 14 13 12 10 7 7 23 26 22 20 18 24 29 32 36 37 31 26 19 18 22 22 20 23 22 19
17 16 13 8 5 10 31 28 24 23 27 20 30 39 50 62 59 49 38 25 25 28 25 27 34 31 25
13 9 6 5 22 34 28 25 25 27 47 35 47 53 64 79 73 70 52 36 36 40 36 39 39 34 31
8 5 12 37 34 30 31 32 36 37 78 63 72 79 65 74 78 100 85 56 44 49 47 45 41 33 28
5 26 40 36 36 38 44 53 65 84 100 90 81 74 68 61 62 100 86 66 55 57 50 45 40 32 26
37 40 36 34 40 59 88 99 97 84 73 70 57 53 59 59 69 91 86 76 64 59 50 44 38 49 72
41 37 41 56 71 72 68 74 81 98 99 95 66 55 59 70 54 70 67 72 55 50 43 39 71 71 82
39 49 57 59 55 44 40 54 93 100 100 95 67 61 63 76 56 51 53 50 54 40 29 72 82 88 63
47 54 49 28 31 34 42 58 89 98 100 84 69 55 64 54 40 44 49 44 31 48 72 98 100 92 60
56 50 24 26 30 36 41 49 54 61 61 64 55 54 57 52 30 37 56 44 72 88 90 94 100 88 56
68 34 26 26 30 35 36 32 35 36 36 40 40 35 41 51 39 69 77 76 90 100 92 78 72 91 75

GFSFLT2_500_rhum_063.txt.gz
RH
75 61 52 54 56 49 46 44 43 41 34 27 20 13 9 8 6 4 5 5 4 6 11 13 14 16 20
50 47 52 51 47 46 47 43 36 28 20 12 9 9 9 8 7 6 5 10 14 13 13 12 12 11 10
49 52 48 51 46 41 36 32 25 18 13 11 11 10 9 6 6 15 19 19 17 15 13 12 12 14 16
53 51 47 42 39 30 23 18 15 14 12 9 8 6 7 15 22 21 19 17 15 13 13 14 13 11 11
53 45 41 35 26 19 15 10 9 9 7 5 6 16 23 24 23 20 20 19 20 21 23 22 22 20 15
43 39 29 21 15 11 9 8 6 4 6 15 27 26 25 25 27 30 28 31 34 35 36 37 36 29 19
35 26 19 13 9 7 5 4 4 17 32 33 27 26 29 32 40 43 46 51 53 52 52 54 46 32 29
22 14 9 8 6 4 4 13 32 36 34 32 32 33 37 44 61 73 87 92 80 68 65 56 48 50 42
12 8 6 4 4 11 33 36 35 35 39 38 45 50 60 73 87 100 100 100 87 75 58 47 56 64 55
7 5 4 12 34 37 37 39 46 48 60 52 57 61 58 63 59 92 100 100 94 77 55 54 62 63 63
4 5 24 36 38 42 46 36 25 27 34 33 37 70 80 67 71 85 97 98 77 66 62 55 57 53 57
8 30 35 39 42 37 20 19 21 26 39 55 70 90 87 78 73 94 100 85 80 80 62 53 41 40 41
34 36 36 43 24 16 20 20 25 32 37 47 60 69 69 64 57 92 75 86 75 66 54 50 45 44 48
35 34 49 29 26 33 35 31 26 31 32 31 40 45 49 52 50 50 51 48 57 49 35 34 51 80 76
32 51 50 45 51 57 65 69 71 54 35 37 37 40 40 35 41 49 51 64 49 37 45 69 88 92 96
50 54 53 52 60 70 75 79 78 83 90 98 92 76 66 68 60 55 88 93 65 64 71 86 100 88 60
62 58 54 58 64 75 88 97 100 99 94 96 100 100 100 100 93 61 60 94 100 93 75 93 100 100 78

GFSFLT2_500_rhum_066.txt.gz
RH
100 100 96 92 67 50 51 52 50 47 43 37 30 20 13 10 8 7 7 8 7 7 6 6 6 5 5
94 94 86 60 57 60 58 52 46 42 36 26 19 13 8 9 9 9 8 6 5 5 4 5 6 11 15
87 69 61 65 64 56 49 43 35 29 22 15 11 10 10 8 7 6 4 4 5 7 16 21 21 19 17
65 70 75 65 54 44 35 29 23 16 12 11 9 7 5 4 4 6 10 18 23 24 24 21 20 19 18
81 75 62 51 39 30 24 17 13 9 7 5 4 5 11 20 27 29 29 27 26 25 24 24 22 22 24
68 56 41 30 26 20 15 11 7 5 4 9 28 34 35 37 38 37 35 33 31 30 30 29 26 24 26
43 34 28 23 16 14 10 6 4 8 23 26 32 36 45 51 53 53 56 58 56 53 47 43 39 40 48
34 26 19 16 11 7 5 4 15 20 23 11 13 13 16 22 30 48 86 100 100 94 91 83 77 74 71
24 20 14 11 8 4 8 18 15 16 17 17 17 13 19 29 42 56 100 100 97 91 80 66 57 56 60
21 17 13 7 5 16 16 18 22 29 31 26 20 19 24 49 97 100 100 100 96 85 67 55 48 52 67
14 8 4 10 24 22 30 30 37 42 42 45 30 27 30 38 59 76 79 76 68 64 53 51 59 61 68
5 4 17 30 25 42 39 46 48 46 48 45 59 56 33 37 51 49 49 56 60 69 66 60 56 55 55
7 31 33 30 44 45 46 50 60 64 67 64 58 66 67 70 39 42 47 63 57 54 53 50 49 45 44
40 38 35 52 44 40 48 57 73 88 88 87 88 81 73 58 69 75 40 61 73 56 49 44 52 54 64
34 38 55 54 49 46 53 71 79 85 96 98 93 98 91 75 69 71 83 100 99 99 89 73 69 75 88
40 56 62 57 51 52 62 74 79 91 86 88 93 100 100 96 69 76 89 90 100 100 88 98 100 84 70
58 64 65 57 51 53 57 73 89 91 91 89 88 86 95 100 95 76 76 90 96 100 100 100 100 100 90

GFSFLT2_500_rhum_069.txt.gz
RH
100 98 98 98 96 97 90 83 72 72 76 67 55 45 34 26 21 16 13 12 11 12 12 12 11 10 9
97 96 100 99 97 96 80 82 86 71 60 43 31 23 17 15 14 13 12 12 8 5 4 5 5 5 5
97 99 98 99 94 91 92 78 66 44 30 22 17 15 11 9 10 8 5 4 3 4 5 7 8 8 8
100 99 90 95 91 79 70 47 33 27 21 17 12 9 7 5 4 5 10 15 17 20 25 25 21 19 22
92 86 86 85 71 51 34 26 23 22 17 12 7 5 7 15 15 12 12 12 11 11 27 38 35 29 26
92 94 80 52 38 28 26 25 22 17 11 6 5 13 15 18 22 19 14 11 10 11 15 40 49 37 30
88 54 40 31 28 27 23 16 12 7 5 5 14 22 30 32 27 17 13 13 16 24 36 41 63 76 46
38 30 29 28 23 17 12 9 6 6 9 16 31 34 42 43 30 24 21 18 24 40 56 54 48 58 98
31 28 23 16 13 10 6 4 7 18 24 24 40 38 51 58 50 34 24 24 30 38 57 74 80 83 80
18 14 12 10 6 4 5 14 16 30 27 33 47 54 54 81 80 53 34 31 32 38 47 55 62 65 66
11 9 4 4 6 15 18 22 34 32 39 40 58 67 71 71 96 82 58 53 36 37 41 41 49 55 65
3 3 6 17 27 23 34 42 37 37 48 47 64 74 81 81 80 84 86 72 56 71 87 66 42 38 45
4 14 31 30 26 49 47 42 46 50 47 56 66 82 79 72 72 72 83 86 73 83 86 86 59 38 30
29 33 32 38 52 50 47 44 53 62 60 70 76 84 86 75 65 71 69 80 98 99 100 100 94 74 74
31 33 50 57 56 50 45 47 47 69 89 86 83 89 84 65 76 65 73 80 82 94 100 100 100 85 78
36 51 60 61 61 56 46 45 58 71 74 77 87 100 98 85 70 96 90 97 100 100 100 100 100 95 99
39 51 62 61 59 56 50 61 77 81 73 74 88 93 100 100 92 89 99 100 97 97 98 93 100 100 100

GFSFLT2_500_rhum_072.txt.gz
RH
99 99 100 96 99 98 98 96 92 98 100 88 73 75 68 53 39 28 20 17 17 16 14 12 10 9 8
98 96 96 99 97 100 99 98 96 95 85 78 75 55 36 26 21 20 19 15 11 9 8 6 4 3 4
98 96 90 95 94 97 96 97 94 95 90 66 42 28 24 23 20 14 10 7 5 4 4 6 8 10 11
98 100 88 99 100 99 96 97 92 63 42 32 29 26 20 12 9 6 4 4 6 13 19 19 17 15 14
100 100 100 98 85 84 76 55 40 31 29 29 24 15 12 10 5 4 7 16 18 23 26 22 17 12 9
100 97 96 82 62 45 35 28 25 26 18 15 12 9 5 9 15 24 24 27 27 29 28 24 16 12 11
93 76 51 38 32 24 16 12 12 11 8 7 4 8 18 30 35 32 31 38 46 40 34 26 17 20 22
40 32 26 17 11 10 8 6 4 3 3 4 14 22 34 42 41 44 45 55 63 59 41 30 20 26 34
23 14 11 8 7 6 4 3 3 8 13 14 33 29 42 60 64 60 66 69 68 68 50 49 26 24 41
11 8 6 5 4 3 3 6 16 18 22 27 40 42 46 93 91 78 76 73 72 64 53 52 60 55 31
6 5 4 4 4 9 16 17 27 34 26 24 45 51 59 64 95 79 72 73 73 62 58 54 46 67 52
4 5 9 14 16 16 23 40 35 29 30 34 47 54 60 78 88 85 81 74 76 77 72 73 69 68 74
12 14 15 16 21 41 45 47 41 32 30 39 49 58 70 78 79 84 73 98 84 95 100 97 99 93 84
15 23 27 35 44 48 49 49 51 43 37 46 59 69 83 80 71 83 84 81 90 87 92 86 81 82 97
23 25 36 44 50 52 54 54 50 54 74 74 75 90 92 74 68 69 74 83 82 83 85 95 81 75 76
22 25 32 43 63 67 65 57 60 73 70 72 84 100 97 93 85 94 99 97 92 83 83 98 100 90 79
23 27 46 63 74 81 76 70 75 72 66 65 79 91 99 100 95 78 90 90 95 94 88 89 97 100 100

GFSFLT2_500_rhum_075.txt.gz
RH
99 94 71 64 98 96 96 99 95 90 89 84 91 92 90 94 91 75 66 56 44 33 25 21 19 18 15
59 75 50 84 92 83 99 93 92 94 92 100 100 96 82 69 56 46 42 31 24 21 19 16 12 10 9
78 59 90 97 91 91 97 98 100 100 98 89 76 55 40 33 28 25 22 16 13 12 10 9 7 5 4
83 100 100 100 99 99 99 98 97 94 85 61 33 28 26 18 13 10 7 5 4 4 4 4 9 17 19
99 99 98 99 100 100 99 87 50 36 27 22 16 11 9 7 5 4 3 3 3 6 16 20 25 30 39
100 100 100 99 88 59 41 28 23 20 10 8 6 5 4 3 3 3 5 10 19 21 30 38 48 58 60
100 83 57 37 31 24 16 11 8 6 6 5 4 3 4 7 14 19 23 23 27 37 53 64 62 59 63
39 34 29 22 17 12 9 8 6 4 4 4 4 9 16 26 32 30 31 28 43 57 65 62 55 49 51
29 22 16 14 10 7 5 5 6 7 8 10 16 20 32 37 40 42 40 48 55 56 52 46 47 49 45
13 12 8 5 5 6 8 11 12 12 12 23 42 30 32 55 56 57 60 67 70 63 57 58 53 50 50
7 5 6 8 9 10 10 11 22 36 34 27 35 35 37 42 76 73 75 83 72 69 63 62 66 66 68
7 10 10 9 14 22 27 36 37 32 37 30 34 36 42 57 65 76 80 81 66 71 70 71 70 67 67
11 10 10 14 23 31 38 46 49 42 36 36 36 52 57 59 71 83 79 96 78 79 82 75 66 61 66
13 12 15 18 26 35 44 57 65 61 44 40 60 63 65 73 77 82 80 81 89 86 77 73 70 63 69
15 15 17 22 26 50 63 74 74 70 70 67 63 59 62 79 88 75 78 89 90 89 81 87 85 74 76
16 16 17 22 28 28 38 52 56 53 49 47 49 52 55 88 89 80 80 90 97 92 77 83 100 94 96
24 23 18 20 30 31 31 31 30 26 21 22 30 36 41 85 100 85 82 92 96 100 98 97 100 100 98

GFSFLT2_500_rhum_078.txt.gz
RH
100 100 100 95 98 87 62 61 57 53 81 91 97 93 96 95 85 88 86 89 84 79 71 61 51 41 31
75 86 67 62 52 54 59 65 85 86 96 91 87 94 98 96 100 95 87 67 50 34 25 22 20 19 18
60 59 63 68 70 65 72 88 95 88 89 98 95 99 93 74 49 29 23 19 16 13 9 8 7 6 5
84 85 80 76 80 90 100 98 100 98 95 85 60 38 30 22 15 11 9 7 6 6 6 4 4 3 3
97 99 98 99 100 100 100 96 79 67 53 30 20 16 11 10 10 9 8 7 6 4 4 3 6 15 22
100 100 100 98 87 57 39 31 22 21 19 12 13 9 9 6 5 5 4 4 4 5 11 18 25 28 37
99 84 50 38 33 24 19 14 12 11 9 6 5 5 6 7 7 7 8 11 16 18 24 29 43 51 58
42 38 27 17 12 9 7 6 5 5 5 7 8 9 11 13 14 20 21 20 26 34 42 51 60 61 58
23 16 12 11 8 6 6 8 9 8 8 8 10 14 37 37 29 22 22 25 38 45 55 55 59 59 66
15 12 12 8 7 10 9 9 12 20 17 34 38 32 48 45 32 30 31 37 45 47 60 63 56 52 60
12 12 6 8 12 11 10 16 24 29 32 38 48 43 38 38 44 41 47 59 71 74 71 61 56 54 62
13 8 8 13 13 12 12 19 28 31 37 40 45 42 42 48 59 63 67 78 72 77 75 72 65 53 41
10 9 12 16 16 14 14 16 34 44 42 43 41 45 52 53 58 60 62 87 81 76 74 76 74 57 47
9 9 14 20 21 17 15 19 25 35 52 56 49 48 44 46 50 51 60 73 80 83 85 89 88 78 77
15 11 17 25 27 26 20 23 29 30 31 29 28 21 20 30 34 40 71 81 81 86 89 96 98 93 89
15 15 23 30 34 34 33 26 32 31 28 23 18 18 18 19 22 36 80 81 88 92 91 92 100 84 86
16 18 28 35 36 36 38 36 31 34 31 27 21 17 16 18 19 44 73 85 92 99 90 88 94 93 80

GFSFLT2_500_rhum_081.txt.gz
RH
97 91 96 91 91 85 84 76 61 56 54 64 74 58 61 94 93 96 83 84 84 90 91 84 72 67 68
100 98 81 100 90 86 72 81 90 90 93 91 93 99 100 97 93 87 95 93 91 87 84 79 70 60 48
83 82 88 100 100 100 100 100 100 100 100 100 100 98 95 90 83 81 69 60 56 47 43 34 26 23 18
97 100 96 95 98 95 97 100 100 94 79 52 39 30 26 30 27 24 25 25 22 20 20 15 12 12 10
100 100 100 100 100 98 95 75 52 47 34 31 25 16 16 15 14 13 12 10 9 8 6 5 5 5 5
98 99 98 84 72 62 47 30 16 17 13 13 8 7 6 6 6 5 5 6 6 6 7 7 8 12 17
83 64 52 44 35 26 15 15 16 15 7 6 7 8 8 8 8 8 7 8 8 11 17 17 21 26 28
46 41 33 23 18 14 16 11 8 6 8 10 9 13 16 12 12 16 19 20 21 19 19 22 31 39 51
35 31 26 15 15 15 10 8 10 12 12 12 19 33 40 34 30 26 25 23 21 24 27 33 38 44 58
34 26 17 12 13 12 9 9 14 14 13 19 30 32 59 57 40 32 29 24 28 33 38 46 60 68 68
32 26 20 14 16 14 10 13 18 17 15 16 49 56 57 66 66 48 39 42 41 44 54 69 71 66 68
36 27 19 19 22 16 12 17 21 22 17 15 32 55 60 57 56 54 54 54 53 58 64 76 74 67 65
31 21 21 26 25 23 16 21 26 26 22 16 24 38 39 37 29 28 34 44 48 49 77 84 80 75 72
26 20 23 26 32 22 17 22 31 31 28 21 23 24 21 19 17 18 24 27 29 61 81 86 87 81 81
47 31 24 31 28 21 19 28 35 36 36 30 27 26 23 20 21 18 18 18 44 73 83 94 94 80 81
63 43 34 40 28 23 20 32 37 37 35 35 30 30 32 32 24 22 19 18 26 62 85 91 100 83 81
70 65 62 45 31 25 23 34 41 39 40 37 34 26 28 31 35 23 19 17 21 56 91 97 96 96 87

GFSFLT2_500_rhum_087.txt.gz
RH
17 15 19 28 32 38 39 35 62 84 80 80 91 99 87 83 89 96 99 95 86 81 80 81 87 91 90
20 23 23 30 39 42 50 53 63 69 70 73 82 83 75 69 65 56 51 53 48 49 48 59 58 69 82
29 34 42 45 46 48 52 64 65 70 73 67 56 38 28 21 20 19 20 20 19 18 18 17 17 17 24
43 43 39 31 27 28 29 25 29 36 40 36 24 24 21 22 21 15 10 7 6 5 5 6 6 7 9
24 22 18 18 18 20 22 25 29 34 30 22 20 19 21 21 19 12 9 6 6 8 10 10 10 9 8
20 19 19 20 20 23 27 31 34 30 28 26 21 16 19 19 9 7 7 9 14 13 13 21 22 18 15
20 20 21 22 23 27 31 34 35 32 30 25 17 23 27 13 9 8 10 15 16 17 24 29 31 30 27
22 23 24 27 29 31 32 31 35 37 25 20 27 35 24 11 10 10 15 18 16 30 39 40 36 34 32
24 24 28 30 32 32 29 31 41 33 21 24 37 35 20 13 11 11 20 21 18 42 47 46 45 42 38
24 26 30 33 33 32 32 37 48 30 28 33 42 42 24 17 15 15 22 23 20 39 40 38 40 41 45
24 27 33 33 31 30 33 45 56 55 49 35 41 48 33 24 25 25 30 28 22 26 21 19 18 21 30
28 29 33 33 34 33 41 56 61 62 62 63 63 59 41 36 27 38 36 35 29 26 23 24 21 18 21
31 33 38 39 30 41 52 60 67 66 65 58 61 62 50 44 26 38 38 39 34 29 27 26 24 19 19
34 41 43 35 29 47 56 59 64 60 58 60 60 51 44 45 32 37 42 36 38 32 31 31 26 21 19
45 49 41 36 33 54 57 58 63 68 69 56 44 30 24 51 46 48 47 41 37 36 29 30 27 21 20
50 44 48 41 45 54 54 58 64 65 61 44 24 23 33 56 51 56 53 45 41 34 26 25 28 23 20
54 54 54 45 56 58 58 60 63 49 26 20 20 22 30 53 69 83 68 59 48 39 30 24 23 23 21